Regional Weather Roundup
Issued by NWS Cleveland, OH

Home | Current Version | Previous Version | Text Only | Print | Product List | Glossary Off
Versions: 1 2 3 4 5 6 7 8 9 10 11 12 13 14 15 16 17 18 19 20 21 22 23 24 25 26 27 28 29 30 31 32 33 34 35 36 37 38 39 40 41 42 43 44 45 46 47 48 49 50

000
ASUS41 KCLE 250202
RWRCLE
OHIO REGIONAL WEATHER ROUNDUP
NATIONAL WEATHER SERVICE CLEVELAND, OH
900 PM EST FRI NOV 24 2017

NOTE: "FAIR" INDICATES FEW OR NO CLOUDS BELOW 12,000 FEET WITH NO
SIGNIFICANT WEATHER AND/OR OBSTRUCTIONS TO VISIBILITY.

OHZ001>008-015>018-024>027-034-035-043-044-250300-
   NORTHWEST OHIO

CITY           SKY/WX    TMP DP  RH WIND       PRES   REMARKS
DEFIANCE       CLEAR     48  31  51 S18G26    29.60F
FINDLAY        CLOUDY    49  29  46 S21G29    29.64F
TOLEDO EXPRESS CLOUDY    50  32  50 S17G26    29.60F
TOLEDO EXEC    CLOUDY    48  30  49 S18       29.63F
LIMA           PTCLDY    49  29  46 S18G25    29.66F
$$

OHZ009>014-019>023-028>033-038-089-250300-
   NORTHEAST OHIO

CITY           SKY/WX    TMP DP  RH WIND       PRES   REMARKS
CLE-HOPKINS    CLOUDY    50  24  36 S20G26    29.72F
CLE-LAKEFRONT  MOCLDY    51  23  33 S24G32    29.68F
CUY CO. ARPT   MOCLDY    50  25  37 S15G25    29.70F
LORAIN-ELYRIA  PTCLDY    48  24  39 S16G25    29.69F
ASHTABULA      PTCLDY    47  23  38 S16G24    29.72F
AKRON-CANTON   PTCLDY    44  23  43 S13       29.75F
WOOSTER        PTCLDY    46  24  42 S10       29.75F
MANSFIELD      PTCLDY    47  27  45 S20G25    29.72F
YOUNGSTOWN     CLOUDY    44  23  43 S8        29.76S
$$

OHZ042-051>053-060>062-070>072-077>081-250300-
  SOUTHWEST OHIO

CITY           SKY/WX    TMP DP  RH WIND       PRES   REMARKS
CINC-COVINGTON CLOUDY    50  28  42 S12       29.77F
CINC-LUNKEN    CLOUDY    49  30  48 S8        29.79F
HAMILTON       CLOUDY    52  28  39 S5        29.77F
DAYTON         MOCLDY    50  28  42 S21G31    29.72F
WRIGHT-PAT AFB NOT AVBL
DAYTON GENERAL CLOUDY    50  27  40 S17       29.74F
WILMINGTON     CLOUDY    46  30  53 S13       29.78F
$$

OHZ036-037-039>041-045>050-054>059-063>069-073>076-082>088-250300-
  CENTRAL AND SOUTHEAST OHIO

CITY           SKY/WX    TMP DP  RH WIND       PRES   REMARKS
COLUMBUS       MOCLDY    47  26  44 S6        29.78F
OSU AIRPORT    MOCLDY    47  28  47 S9        29.76F
BOLTON FIELD   PTCLDY    46  28  49 S10G16    29.78F
RICKENBACK AFB PTCLDY    44  27  50 S9        29.78F
NEWARK         PTCLDY    45  23  42 S5        29.78F
MARION         CLOUDY    48  28  46 S18       29.73F
LANCASTER      PTCLDY    47  26  44 S7        29.79F
ZANESVILLE     PTCLDY    45  22  40 S8        29.80F
NEW PHILLY     NOT AVBL
$$



USA.gov is the U.S. government's official web portal to all federal, state and local government web resources and services.